Regional Weather Roundup
Issued by NWS Grand Forks, ND

Home | Current Version | Previous Version | Graphics & Text | Print | Product List | Glossary On
Versions: 1 2 3 4 5 6 7 8 9 10 11 12 13 14 15 16 17 18 19 20 21 22 23 24 25 26 27 28 29 30 31 32 33 34 35 36 37 38 39 40 41 42 43 44 45 46 47 48 49 50
000
ASUS43 KFGF 280510
RWRFGF
PRAIRIE TO PINES  WEATHER ROUNDUP
NATIONAL WEATHER SERVICE EASTERN NORTH DAKOTA/GRAND FORKS ND
1200 AM CDT FRI JUL 28 2017

 **SATELLITE DATA USED TO AUGMENT SKY COVER AT AUTOMATED STATIONS**
 *****  WEATHER ACROSS EASTERN NORTH DAKOTA  *****

CITY           SKY/WX    TMP DP  RH WIND       PRES   REMARKS
GRAND FORKS    FAIR      64  62  93 S3        30.05S
GRAND FRKS AFB FAIR      61  59  92 SW3       30.06S
DEVILS LAKE    FAIR      68  60  75 SE6       30.07S
FARGO          FAIR      64  60  87 CALM      30.06S
WAHPETON ARPT  FAIR      64  61  88 CALM      30.06S
$$

 ***** WEATHER ACROSS CENTRAL AND WESTERN NORTH DAKOTA  *****

CITY           SKY/WX    TMP DP  RH WIND       PRES   REMARKS
BISMARCK       FAIR      69  58  67 E3        30.04R
MINOT          CLOUDY    74  60  61 SE9       30.03S
JAMESTOWN      FAIR      66  59  78 SE6       30.06S
MINOT AFB      CLOUDY    70  59  69 SE7       30.02S HAZE
GARRISON         N/A     68  63  84 SE3       30.03S
WILLISTON      FAIR      69  62  78 SE6       30.01S
DICKINSON      FAIR      63  60  90 E6        30.04S
HETTINGER      FAIR      58  53  84 CALM      30.07R
$$

 *****  OTHER AIRPORT OBSERVATIONS IN OUR AREA  *****

CITY           SKY/WX    TMP DP  RH WIND       PRES   REMARKS
WALHALLA       NOT AVBL
GRAFTON AIRPOR FAIR      66  63  88 CALM      30.07S
VALLEY CITY AR FAIR      64  63  94 E3        30.09S
CANDO          NOT AVBL
CAVALIER APRT  FAIR      64  63  94 CALM      30.05S
GWINNER        CLEAR     61  59  94 CALM      30.07S
SHEYENNE NWR     N/A     63  62  96 NE5       29.95S
ROLLA            N/A     59  59 100 CALM      30.09R
 ***** THE ABOVE OBSERVATIONS ARE NON NWS ARE NOT QUALITY
       CONTROLLED AND MAY MIS-REPORT RAIN FOR SNOW...
$$

  *****  WEATHER ACROSS NORTHERN MINNESOTA  *****

CITY           SKY/WX    TMP DP  RH WIND       PRES   REMARKS
FLAG ISLAND    FAIR      72  63  73 CALM      30.06R
WARROAD        FAIR      63  57  82 CALM      30.08S
ROSEAU         FAIR      63  57  82 CALM      30.07S
HALLOCK        FAIR      63  61  94 CALM      30.05S
THF RVR FALLS  FAIR      62  60  93 CALM      30.08S
BAUDETTE       FAIR      60  59  96 CALM      30.08R
WASKISH        FAIR      59  57  94 CALM      30.08S FOG
CROOKSTON      FAIR      66  61  82 CALM      30.07S
STEPHEN NDAWN    N/A     63  59  88 SE2         N/A
GREENBUSH NDAW   N/A    N/A N/A N/A W1          N/A
$$
  *****  WEATHER ACROSS CENTRAL AND WEST MINNESOTA  *****

CITY           SKY/WX    TMP DP  RH WIND       PRES   REMARKS
FOSSTON        FAIR      61  55  82 CALM      30.09S
BEMIDJI        FAIR      59  55  86 CALM      30.09S
PARK RAPIDS    FAIR      63  58  83 CALM      30.09S
ELBOW LAKE     FAIR      69  65  86 CALM      30.08R
WADENA         FAIR      63  57  82 CALM      30.08S
DETROIT LAKES  FAIR      66  61  82 CALM      30.10S
MOORHEAD       FAIR      64  59  82 CALM      30.07S
FERGUS FALLS   FAIR      68  63  83 CALM      30.07R
MORRIS MN      FAIR      66  63  88 CALM      30.06S
STAPLES        FAIR      63  59  88 CALM      30.08S
$$
  *****  WEATHER ELSEWHERE ACROSS MINNESOTA  *****

CITY           SKY/WX    TMP DP  RH WIND       PRES   REMARKS
DULUTH         FAIR      57  56  96 CALM      30.09R
INTRNTL FALLS  FAIR      57  54  89 CALM      30.08R
ELY            FAIR      57  55  94 SE3       30.09S
CLOQUET        FAIR      61  55  82 E3        30.09R
WHEATON        FAIR      64  59  82 CALM      30.08S
BRAINERD       FAIR      61  60  97 CALM      30.07S
HIBBING        FAIR      54  54 100 CALM      30.09S
ALEXANDRIA     FAIR      68  64  87 NW3       30.09S
SAINT CLOUD    FAIR      63  63 100 CALM      30.06S
MINNEAPOLIS    FAIR      74  60  61 NE3       30.05R
$$

  *****  WEATHER ACROSS SOUTH DAKOTA  *****

CITY           SKY/WX    TMP DP  RH WIND       PRES   REMARKS
SIOUX FALLS    FAIR      67  64  90 CALM      30.06R
BROOKINGS      FAIR      69  62  78 VRB3      30.08R
WATERTOWN      FAIR      68  59  73 E3        30.07S
HURON          FAIR      70  63  78 SE5       30.05R
SISSETON         N/A     63  60  90 CALM      30.06R
ABERDEEN       FAIR      68  62  81 E6        30.05S
MITCHELL       FAIR      69  64  84 SE6       30.05S
PIERRE         FAIR      75  55  49 SE12      30.01S
MOBRIDGE       FAIR      74  59  59 SE12      30.01R
RAPID CITY     FAIR      61  55  81 SW12      30.07R
$$

  *****  SOME WEATHER IN NEARBY STATES *****

CITY           SKY/WX    TMP DP  RH WIND       PRES   REMARKS
GLASGOW MT     FAIR      72  53  51 SE7       29.95R
GREAT FALLS MT FAIR      70  40  33 SW7       29.97R
CHEYENNE WY    FAIR      66  56  70 SW6       30.15F
SCOTTSBLUFF NE FAIR      66  62  87 SE13      30.04F
OMAHA NE       FAIR      68  64  87 CALM      30.01S
DES MOINES IA  FAIR      74  62  66 NE3       30.00R
DAVENPORT IA   FAIR      66  63  90 NE5       30.01R
CHICAGO IL     FAIR      70  60  70 N9        29.94S
EAU CLAIRE WI  FAIR      65  60  84 CALM      30.02S
LA CROSSE WI   MOCLDY    74  66  76 CALM      30.01R
$$

  *****  SOME NATIONAL WEATHER *****

CITY           SKY/WX    TMP DP  RH WIND       PRES   REMARKS
LA GUARDIA NY  CLOUDY    75  71  87 SW5       29.86S
RALEIGH NC     MOCLDY    76  74  93 S5        29.91F
ATLANTA GA     MOCLDY    76  72  87 S3        29.97F
NEW ORLEANS LA FAIR      80  77  90 SW5       29.96S
OKLAHOMA CITY  MOCLDY    79  73  82 W3        29.95R
ALBUQUERQUE NM LGT RAIN  70  62  76 SE12      30.23F
SALT LAKE CITY FAIR      78  54  43 SW6       30.06S
LOS ANGELES CA FAIR      68  64  87 W7        29.91R
BOISE ID       FAIR      80  44  27 CALM      29.98R
SEATTLE WA     FAIR      63  55  75 N7        30.11R
$$

*** WEATHER ACROSS MANITOBA...SASKATCHEWAN AND ONTARIO ***
                ***ONTARIO***

CITY           SKY/WX    TMP DP  RH WIND       PRES   REMARKS
GERALDTON      CLEAR     55  50  82 CALM      30.10R
THUNDER BAY    CLEAR     57  55  94 W5        30.07R
SIOUX LOOKOUT  CLEAR     54  54 100 CALM      30.07S
TORONTO        PTCLDY    64  59  82 N13       29.93S
BIG TROUT LK   MOCLDY    70  55  60 S3        29.99S
PICKLE LAKE    NOT AVBL
DRYDEN         CLEAR     68  59  73 CALM      30.08R
KENORA         CLEAR     68  59  73 NE5       30.09R
$$
                *** MANITOBA***

CITY           SKY/WX    TMP DP  RH WIND       PRES   REMARKS
BRANDON        CLEAR     61  55  82 E3        30.04S
DAUPHIN        CLEAR     63  57  82 CALM      30.00F
ISLAND LAKE    NOT AVBL
PILOT MOUND      N/A     63  57  82 E6          N/A
THE PAS        PTCLDY    68  59  73 S7        29.91F
THOMPSON       PTCLDY    72  55  56 S6        29.88S
WINNIPEG       CLEAR     68  59  73 S2        30.05S
LYNN LAKE      CLEAR     66  57  72 SW6       29.83F
CHURCHILL      CLOUDY    55  50  82 VRB26G37  29.93R
GILLAM         MOCLDY    72  59  64 S9        29.86F
$$
                ***SASKATCHEWAN***

CITY           SKY/WX    TMP DP  RH WIND       PRES   REMARKS
ESTEVAN        PTCLDY    64  61  88 SE6       30.02S
KINDERSLEY     PTCLDY    75  55  50 SE16G24   29.83S
LLOYDMINSTER   PTCLDY    70  57  64 S12G17    29.77R
PRINCE ALBERT  MOCLDY    70  63  78 S9        29.88F
REGINA         PTCLDY    68  57  68 SE14      29.98S
YORKTON        CLEAR     66  59  77 S6        30.00S
N. BATTLEFORD  CLEAR     72  55  56 SE12      29.82F
LA RONGE       PTCLDY    72  55  56 S7        29.82F
SASKATOON      CLEAR     77  55  47 SE16G22   29.88F
SWIFT CURRENT  CLEAR     72  59  64 S15G23    29.90F
$$
NOTE: THESE ARE AUTOMATED STATIONS WITH LIMITED QUALITY CONTROL
      "FAIR" INDICATES FEW OR NO CLOUDS BELOW 12,000 FEET WITH NO
      SIGNIFICANT WEATHER AND/OR OBSTRUCTIONS TO VISIBILITY.
      SKY/WX - SKY CONDITION AND SIGNIFICANT WEATHER.
      TMP - AIR TEMPERATURE.    DP   - DEWPOINT TEMPERATURE.
      RH  - RELATIVE HUMIDITY.  PRES - PRESSURE.
      HX  - HEAT INDEX.         WCI  - WIND CHILL INDEX.
$



USA.gov is the U.S. government's official web portal to all federal, state and local government web resources and services.